Lapse_Rate
6.8 6.8 6.9 6.9 7.0 6.9 6.7 6.6 6.5 6.6 6.4 6.4 6.3 6.5 6.4 6.4 6.2 5.9 5.8 5.8 5.8 5.8 5.8 5.8 5.8 5.8 5.8 5.7 5.7 5.8 5.8 6.1 5.8 5.8 5.9 6.1 6.1 6.1 6.3 6.4 6.4 6.4 6.3
6.8 6.8 6.8 6.8 6.8 6.8 6.8 6.7 6.5 6.4 6.4 6.4 6.3 6.2 6.5 6.4 6.3 6.2 5.9 5.9 5.7 5.6 5.6 5.7 5.8 5.7 5.6 5.6 5.7 5.5 5.7 5.8 5.7 5.8 5.8 5.9 5.9 6.1 6.0 6.1 6.2 6.3 6.2
6.3 6.4 6.4 6.4 6.4 6.4 6.5 6.6 6.6 6.4 6.3 6.3 6.3 6.3 6.0 6.1 5.9 5.9 5.9 5.8 5.6 5.6 5.5 5.6 5.7 5.8 5.7 5.6 5.7 5.5 5.6 5.6 5.6 5.6 5.6 5.8 5.9 6.0 6.0 5.9 5.9 6.0 6.0
5.8 6.0 6.1 6.1 6.1 6.2 6.3 6.3 6.3 6.2 6.1 6.0 6.0 6.1 6.0 5.9 5.8 6.3 6.0 5.9 5.8 5.8 5.6 5.5 5.6 5.6 5.7 5.7 5.6 5.6 5.5 5.5 5.7 5.6 5.6 5.7 5.6 5.7 5.9 5.8 5.8 5.8 5.8
5.5 5.6 5.7 5.8 5.8 5.9 6.1 6.1 6.2 6.1 6.0 5.9 5.8 5.8 5.8 5.8 5.8 5.6 5.8 5.9 5.9 5.8 5.7 5.6 5.6 5.7 5.7 5.7 5.7 5.7 5.7 5.4 5.4 5.5 5.5 5.5 5.4 5.6 5.5 5.7 5.6 5.6 5.7
5.1 5.2 5.2 5.3 5.5 5.7 5.8 5.9 5.9 5.9 6.0 5.9 5.8 5.6 5.5 5.5 5.5 5.4 5.2 5.1 5.3 5.8 5.8 5.7 5.6 5.5 5.5 5.5 5.5 5.5 5.7 5.7 5.6 5.6 5.5 5.5 5.3 5.4 5.3 5.3 5.5 5.5 5.6
4.6 4.7 4.8 4.8 4.9 4.9 5.0 5.2 5.4 5.5 5.5 5.5 5.5 5.4 5.3 5.1 5.1 5.1 5.1 4.9 4.9 5.0 5.0 5.2 5.4 5.4 5.4 5.4 5.3 5.2 5.2 5.3 5.4 5.4 5.5 5.6 5.4 5.3 5.3 5.3 5.6 5.5 5.6
4.2 4.1 4.1 4.2 4.2 4.3 4.4 4.5 4.6 4.7 4.9 5.1 5.1 5.3 5.1 4.9 4.8 4.9 4.8 4.7 4.7 4.6 4.7 4.8 4.8 4.9 5.0 5.1 5.1 5.1 5.0 5.0 5.0 5.1 5.2 5.4 5.5 5.3 5.5 5.5 5.3 5.6 5.7
3.7 3.9 4.0 4.1 4.0 4.0 4.1 4.2 4.3 4.3 4.4 4.5 4.6 4.7 4.6 4.2 4.2 4.4 4.4 4.4 4.2 4.0 4.0 4.2 4.5 4.7 4.7 4.6 4.7 4.8 4.8 4.7 4.8 4.9 4.7 4.8 5.1 5.2 5.4 5.5 5.5 5.6 5.5
3.7 3.9 3.9 4.0 4.2 4.3 4.4 4.4 4.4 4.5 4.4 4.3 4.3 4.3 4.3 4.4 3.8 3.8 3.9 4.1 4.1 4.2 4.2 4.2 4.1 4.0 4.0 4.2 4.4 4.4 4.4 4.5 4.5 4.6 4.7 4.6 4.6 4.8 4.9 5.1 5.3 5.4 5.5
3.9 4.0 4.0 4.1 4.2 4.2 4.2 4.3 4.4 4.4 4.4 4.4 4.4 4.4 4.3 4.2 4.2 4.1 4.0 4.3 4.4 4.4 4.5 4.6 4.7 4.6 4.4 4.4 4.2 4.4 4.3 4.3 4.4 4.5 4.5 4.6 4.5 4.5 4.6 4.8 5.1 5.2 5.4
3.3 3.3 3.4 3.4 3.3 3.3 3.3 3.3 3.3 3.3 3.4 3.5 3.5 3.5 3.6 3.6 3.7 3.7 3.9 4.0 4.2 4.3 4.3 4.4 4.7 4.8 4.7 4.7 4.7 4.5 4.5 4.5 4.7 4.6 4.5 4.6 4.5 4.5 4.4 4.4 4.8 5.1 5.3
3.1 2.9 2.8 2.7 2.7 2.6 2.6 2.7 2.7 2.7 2.7 2.7 2.7 2.8 2.9 2.9 2.9 3.0 3.1 3.4 3.6 3.7 3.8 3.9 4.1 4.2 4.3 4.4 4.4 4.6 4.5 4.5 4.8 4.6 4.7 4.6 4.6 4.6 4.6 4.6 4.5 4.7 5.2
2.7 2.6 2.5 2.5 2.4 2.4 2.3 2.3 2.2 2.2 2.3 2.3 2.4 2.4 2.4 2.4 2.6 2.6 2.7 2.7 3.0 3.3 3.3 3.2 3.3 3.6 3.8 4.1 4.3 4.3 4.4 4.6 4.6 4.7 4.6 4.6 4.7 4.8 4.6 4.5 4.5 4.5 5.0
2.4 2.3 2.2 2.1 2.0 2.0 1.9 1.9 2.0 2.1 2.2 2.2 2.2 2.3 2.4 2.4 2.4 2.4 2.4 2.5 2.6 2.7 2.9 3.2 3.2 3.1 3.2 3.4 3.7 4.0 4.2 4.3 4.5 4.5 4.9 5.0 4.8 4.9 4.9 4.9 4.8 4.7 4.8
2.1 1.9 1.8 1.8 1.9 2.0 2.0 1.9 1.8 1.7 1.8 1.9 2.0 2.2 2.4 2.5 2.6 2.6 2.7 2.6 2.6 2.6 2.7 2.7 2.9 3.2 3.1 3.1 3.3 3.4 4.0 4.3 4.2 4.1 4.1 4.3 4.6 4.8 5.0 4.7 4.7 4.9 4.7
2.2 2.3 2.2 2.2 2.1 2.1 2.3 2.6 2.6 2.7 2.7 2.8 3.0 3.2 3.4 3.6 3.7 3.8 3.8 3.8 3.7 3.6 3.5 3.4 3.3 3.1 3.2 3.3 3.3 3.2 3.5 4.1 4.2 4.0 4.1 4.0 3.9 4.0 4.1 4.1 4.1 4.2 4.2
2.7 2.8 3.0 3.2 3.2 3.4 3.7 4.1 4.2 4.2 4.3 4.4 4.4 4.4 4.5 4.5 4.6 4.6 4.6 4.7 4.7 4.7 4.6 4.4 4.2 4.1 3.9 3.6 3.6 3.7 3.8 4.1 4.1 4.2 4.2 4.1 4.1 3.9 3.7 3.5 3.8 3.8 3.9
4.1 4.3 4.5 4.7 4.8 4.7 4.8 4.9 5.0 5.0 5.0 5.0 5.0 5.1 5.0 5.1 5.1 5.2 5.3 5.3 5.3 5.4 5.3 5.3 5.3 5.1 4.9 4.7 4.5 4.5 4.6 4.4 4.4 4.4 4.2 4.1 4.0 4.1 4.1 3.7 3.6 3.8 3.7
4.9 5.0 5.1 5.1 5.2 5.2 5.2 5.3 5.3 5.3 5.2 5.3 5.3 5.4 5.4 5.4 5.5 5.5 5.7 5.8 5.8 5.8 5.8 5.7 5.6 5.6 5.6 5.4 5.3 5.1 5.0 5.0 4.7 4.5 4.4 4.1 3.9 3.9 3.7 3.5 3.9 4.0 4.1
5.1 5.1 5.1 5.2 5.2 5.2 5.2 5.3 5.3 5.2 5.2 5.3 5.3 5.3 5.3 5.3 5.3 5.4 5.4 5.5 5.7 5.8 5.9 5.9 5.9 5.8 5.7 5.6 5.4 5.4 5.2 5.1 5.2 4.9 4.3 4.3 4.4 4.1 3.9 3.8 3.9 3.9 3.9
5.1 5.1 5.1 5.1 5.0 4.9 4.9 4.9 4.9 4.9 4.8 4.8 4.7 4.6 4.5 4.6 4.6 4.8 4.9 4.9 5.1 5.3 5.6 5.8 5.8 5.7 5.7 5.6 5.5 5.5 5.2 5.1 5.1 5.2 5.4 5.2 4.7 4.1 4.3 3.8 3.8 3.8 3.8
4.7 4.7 4.7 4.7 4.5 4.4 4.4 4.5 4.4 4.4 4.5 4.5 4.3 4.2 4.1 4.0 4.0 4.1 4.2 4.4 4.5 4.6 4.7 4.8 5.1 5.4 5.5 5.6 5.5 5.4 5.3 5.3 5.3 5.2 5.0 5.1 5.1 5.1 5.0 4.5 4.2 4.0 4.1
4.6 4.7 4.8 4.9 5.0 4.9 4.8 4.7 4.8 4.7 4.8 4.7 4.6 4.5 4.4 4.3 4.2 4.0 3.9 4.0 4.0 4.1 4.1 4.1 4.3 4.5 4.6 4.8 4.9 5.1 5.3 5.2 5.0 5.1 5.2 5.1 4.8 4.8 5.0 4.9 4.9 4.9 4.5
5.1 5.3 5.3 5.4 5.3 5.2 5.3 5.1 4.8 4.8 4.9 4.8 4.7 4.7 4.6 4.5 4.5 4.4 4.3 4.3 4.2 4.1 4.1 4.0 3.8 3.9 4.1 4.2 4.1 4.0 4.1 4.5 4.8 4.8 4.7 4.9 4.9 4.9 5.0 5.0 5.0 4.8 4.7
5.4 5.6 5.6 5.6 5.5 5.5 5.6 5.3 5.1 5.1 5.0 5.1 5.0 4.8 4.7 4.6 4.5 4.4 4.5 4.5 4.4 4.3 4.2 4.0 3.7 3.6 3.4 3.3 3.4 3.4 3.2 3.4 3.8 4.0 4.5 4.7 4.7 4.9 5.0 5.3 5.4 5.6 5.5
Wind_Speed
16 18 19 20 21 21 21 21 21 20 15 12 11 6 5 5 4 5 4 5 5 5 6 5 5 6 5 4 5 0 3 3 5 4 1 1 2 2 2 3 3 2 1
18 19 20 21 20 20 20 21 20 20 17 12 11 7 7 4 5 4 4 5 5 4 5 5 4 5 4 4 5 3 2 2 5 2 1 3 4 5 5 3 3 3 2
17 18 20 20 20 21 20 19 19 19 18 19 12 10 8 5 4 4 4 4 5 4 5 5 5 4 4 5 6 7 6 4 4 4 3 3 5 1 5 7 4 4 3
15 16 17 19 20 19 18 18 18 18 16 24 15 16 9 7 10 8 6 4 5 5 5 6 6 6 4 6 5 6 6 4 4 2 4 3 2 2 2 3 5 5 6
15 17 17 16 17 16 17 16 17 18 18 17 17 12 15 10 9 11 16 12 6 6 7 6 7 5 4 5 6 4 5 6 3 4 3 6 5 4 3 2 4 5 6
15 15 16 16 16 17 17 16 18 16 17 17 18 17 16 15 12 13 11 11 11 11 11 9 9 8 6 6 5 7 6 5 6 4 6 6 7 7 6 6 3 6 6
14 15 17 16 17 19 19 17 19 18 18 17 16 16 16 14 14 12 10 12 9 11 14 21 12 7 8 8 8 7 8 6 6 6 5 5 7 7 4 5 1 3 2
13 15 16 15 16 18 18 18 19 18 18 17 17 14 15 9 9 11 9 8 9 9 19 20 20 21 13 10 9 6 6 8 8 10 5 4 7 7 5 4 3 3 3
12 14 14 14 15 16 17 17 17 17 18 17 15 15 13 13 11 13 12 9 13 15 18 20 18 20 21 16 9 7 8 8 8 8 9 7 6 6 6 6 5 4 4
12 13 13 14 14 14 14 16 16 16 16 16 14 13 14 14 13 12 12 13 14 18 16 16 17 16 18 19 16 9 9 9 7 7 10 10 8 6 5 6 6 5 5
12 12 12 12 13 14 14 15 15 16 16 15 15 14 13 13 16 12 12 12 15 17 14 15 13 13 13 14 13 14 13 11 10 10 10 11 11 9 8 5 5 7 7
11 12 13 13 14 14 14 14 14 14 14 14 14 14 13 12 12 13 14 18 14 17 15 15 12 12 12 11 12 11 13 13 13 10 11 11 8 11 11 9 10 9 8
10 12 12 12 12 12 13 13 13 13 14 14 13 12 12 12 12 12 14 17 16 15 17 15 12 12 12 12 12 10 10 10 11 12 12 10 10 10 8 9 8 8 8
9 12 12 11 10 10 10 10 10 10 11 11 11 11 11 11 11 11 13 13 14 11 11 13 10 10 10 11 13 13 9 9 8 8 9 11 11 9 7 8 9 8 8
10 11 11 11 11 11 10 10 10 10 10 10 10 10 10 10 10 10 10 14 13 12 13 10 11 11 8 6 12 12 10 10 9 8 6 6 9 13 11 6 5 7 7
11 13 12 11 10 11 11 12 11 11 11 10 11 10 10 10 11 11 11 11 11 11 9 10 10 11 8 18 20 16 10 9 9 9 9 7 8 8 11 13 13 9 3
12 12 12 10 10 10 11 11 12 12 11 11 11 11 10 11 11 11 11 11 12 12 11 10 10 11 10 20 19 20 10 8 9 9 8 8 6 9 5 8 12 12 15
12 12 10 10 10 10 9 10 10 10 10 10 10 10 11 11 11 12 12 12 11 11 11 11 11 11 9 20 20 21 10 10 10 9 8 8 8 8 8 6 6 6 6
10 9 9 10 10 9 9 9 9 10 9 10 10 11 11 12 12 12 12 12 11 11 11 12 12 12 11 21 22 18 10 10 11 9 8 8 9 13 15 8 7 7 7
9 10 10 9 9 10 9 10 10 10 10 10 12 13 13 13 13 14 13 12 12 13 11 14 12 16 13 21 22 17 9 11 9 11 9 14 13 18 17 9 7 7 5
12 13 10 9 10 10 11 13 13 13 13 14 14 14 14 14 14 14 12 13 13 13 12 13 12 13 14 13 21 20 11 9 9 9 8 7 15 15 17 16 8 7 4
14 13 11 11 12 12 12 14 14 14 14 14 14 15 14 12 12 15 13 14 12 12 12 12 11 9 11 19 17 19 19 18 11 11 9 10 17 18 17 14 18 18 13
13 12 12 14 13 12 12 14 14 14 14 14 14 14 14 13 13 14 13 10 11 9 10 10 10 10 10 10 21 22 21 20 12 10 15 24 24 23 18 15 17 18 7
13 13 13 14 14 13 14 14 14 14 14 15 15 13 12 13 12 10 10 9 8 8 9 10 10 11 11 10 10 10 10 16 14 15 11 14 18 21 19 15 12 6 5
13 13 14 14 16 15 15 14 14 14 14 14 12 12 11 11 11 10 9 9 9 11 10 10 10 11 11 11 20 19 12 11 14 17 10 9 9 9 8 8 8 7 6
14 14 15 15 16 15 15 15 14 13 13 12 10 9 9 9 9 9 10 19 23 26 27 26 20 12 23 28 29 29 29 29 28 14 10 10 9 9 8 8 7 6 8
Wind_Direction
31 28 26 22 17 17 14 12 9 4 5 357 352 313 264 259 255 257 253 253 228 212 219 222 216 222 228 179 225 279 155 100 144 151 122 201 220 235 249 262 200 178 194
27 24 23 23 22 16 13 12 12 8 6 358 345 337 340 341 329 310 278 257 251 228 241 236 236 222 236 203 155 180 131 129 182 206 40 260 211 223 213 213 221 209 230
26 20 19 21 19 18 12 11 13 11 11 5 359 355 348 305 279 268 283 269 272 255 253 255 260 253 246 245 164 186 181 172 196 254 229 212 241 191 164 217 206 193 220
30 26 20 19 17 15 13 14 14 14 14 14 14 16 11 4 345 346 348 325 297 285 275 275 264 262 251 251 232 179 201 173 176 211 251 268 331 288 212 213 210 203 220
28 24 23 23 22 18 16 14 16 17 15 17 19 17 15 1 354 3 355 357 348 328 316 301 285 270 261 260 260 215 200 217 203 195 164 219 226 265 272 229 196 211 218
28 27 21 21 20 18 17 17 17 19 16 17 18 19 17 10 12 8 5 354 355 355 354 333 308 291 277 264 258 257 219 237 228 208 232 215 217 229 231 251 184 206 199
25 21 19 17 16 15 15 14 13 18 17 19 19 16 14 15 15 10 4 3 358 356 349 342 329 303 283 275 269 258 242 234 238 239 223 221 227 243 232 257 181 230 114
25 22 18 15 14 13 14 11 11 12 13 15 17 15 16 13 10 8 6 3 360 352 350 345 338 330 301 287 271 262 257 240 238 235 238 241 229 233 224 234 238 212 199
21 18 16 14 12 11 11 9 9 10 10 10 7 12 14 11 7 4 4 359 357 355 353 353 351 343 334 316 275 261 251 248 249 231 232 237 237 232 220 238 247 231 239
16 13 13 11 10 8 7 7 8 7 6 4 6 4 5 6 6 3 2 359 354 353 352 352 353 351 347 338 332 280 262 251 241 239 232 236 231 240 236 219 231 233 238
11 8 6 7 7 5 4 3 3 2 1 0 357 360 359 359 359 360 358 356 352 353 353 350 348 351 351 347 341 331 313 270 254 245 237 240 228 231 230 226 220 225 225
7 5 2 1 1 1 359 359 357 357 354 352 350 351 353 354 355 352 350 349 350 351 350 349 348 347 348 346 346 338 331 332 312 269 259 236 240 237 221 218 220 224 227
359 358 356 356 354 351 350 349 348 349 345 347 345 343 346 347 345 342 341 342 341 341 344 347 349 343 343 336 340 343 334 327 322 334 316 271 249 244 233 231 228 220 225
355 351 348 346 344 343 340 339 335 338 335 336 334 333 336 339 335 331 333 332 333 331 333 334 336 338 336 335 336 339 345 339 324 315 318 330 326 288 251 242 234 227 219
349 344 338 336 335 335 334 335 332 332 330 329 327 326 326 332 329 327 329 327 328 326 325 325 326 327 328 333 332 336 342 340 334 327 304 295 291 305 318 327 274 242 233
339 334 332 330 330 329 328 330 327 327 327 325 323 322 325 330 325 326 325 326 323 322 320 322 321 322 320 323 329 336 338 337 330 329 331 315 295 290 286 281 285 301 306
328 325 323 323 324 319 326 320 321 321 321 322 322 322 327 327 324 324 324 324 323 318 318 316 315 312 317 319 323 327 330 322 315 312 319 322 323 308 273 277 284 289 261
319 318 316 313 307 313 306 303 307 309 314 313 314 322 324 319 320 322 322 321 317 317 317 314 309 308 314 314 316 319 322 309 298 299 299 302 306 308 306 277 265 258 263
309 303 303 301 304 312 305 302 303 308 306 306 318 319 318 318 319 319 318 315 314 313 309 308 310 313 309 310 311 312 305 300 293 287 284 281 282 287 294 294 286 262 252
302 303 302 307 306 298 303 304 309 307 306 317 316 317 315 315 315 315 314 312 312 307 309 307 306 307 306 306 305 305 299 296 293 295 271 276 284 283 280 280 269 275 270
309 308 314 298 299 309 306 310 310 309 316 318 314 313 313 312 309 311 310 310 307 305 307 307 303 302 299 296 301 301 297 293 291 289 288 284 276 277 290 286 279 278 268
312 311 309 308 308 308 310 307 305 313 315 312 311 310 311 311 309 308 306 303 309 309 303 306 305 302 305 301 298 298 295 292 291 291 291 291 291 290 275 269 278 279 280
309 310 309 307 307 305 307 303 306 310 309 307 307 308 308 308 308 303 309 309 302 308 306 305 308 306 306 304 305 300 298 294 291 285 282 282 282 279 281 291 288 266 252
306 308 306 301 302 308 305 302 305 306 305 303 304 304 304 301 304 305 302 304 304 303 300 297 293 294 292 293 293 296 298 295 293 289 280 276 272 268 268 272 272 279 260
302 302 294 302 301 304 301 302 302 303 301 300 299 299 296 299 300 297 292 287 293 286 285 287 289 292 293 292 292 293 291 288 286 286 281 265 255 254 252 250 251 245 249
293 295 300 296 297 300 298 297 297 298 297 295 292 294 297 297 293 292 292 289 295 298 297 299 298 292 293 297 296 293 292 290 289 285 282 279 276 275 259 246 243 236 249